Time,TemperatureF,DewpointF,PressureIn,WindDirection,WindDirectionDegrees,WindSpeedMPH,WindSpeedGustMPH,Humidity,HourlyPrecipIn,Conditions,Clouds,dailyrainin,SoftwareType,DateUTC
2013-02-20 00:10:00,-0.5,-7.0,30.54,South,173,5.0,8.0,75,0.00,,,0.00,weatherlink.com 1.10,2013-02-20 06:10:00,
2013-02-20 00:26:00,-0.4,-6.0,30.54,SSE,153,5.0,10.0,76,0.00,,,0.00,weatherlink.com 1.10,2013-02-20 06:26:00,
2013-02-20 00:41:00,-0.4,-7.0,30.55,SSE,153,6.0,10.0,75,0.00,,,0.00,weatherlink.com 1.10,2013-02-20 06:41:00,
2013-02-20 00:56:00,-2.4,-9.0,30.56,East,101,4.0,5.0,75,0.00,,,0.00,weatherlink.com 1.10,2013-02-20 06:56:00,
2013-02-20 01:11:00,-3.8,-9.0,30.56,ESE,113,4.0,5.0,77,0.00,,,0.00,weatherlink.com 1.10,2013-02-20 07:11:00,
2013-02-20 01:26:00,-4.4,-10.0,30.56,SE,127,3.0,5.0,78,0.00,,,0.00,weatherlink.com 1.10,2013-02-20 07:26:00,
2013-02-20 01:41:00,-4.7,-10.0,30.56,SE,127,1.0,4.0,79,0.00,,,0.00,weatherlink.com 1.10,2013-02-20 07:41:00,
2013-02-20 01:56:00,-4.4,-9.0,30.57,South,181,7.0,7.0,81,0.00,,,0.00,weatherlink.com 1.10,2013-02-20 07:56:00,
2013-02-20 02:11:00,-2.6,-7.0,30.57,SSE,167,4.0,9.0,80,0.00,,,0.00,weatherlink.com 1.10,2013-02-20 08:11:00,
2013-02-20 02:26:00,-2.7,-8.0,30.58,SSE,165,6.0,8.0,78,0.00,,,0.00,weatherlink.com 1.10,2013-02-20 08:26:00,
2013-02-20 02:41:00,-2.7,-8.0,30.58,SE,131,4.0,7.0,79,0.00,,,0.00,weatherlink.com 1.10,2013-02-20 08:41:00,
2013-02-20 02:57:00,-3.3,-8.0,30.58,SE,135,3.0,5.0,79,0.00,,,0.00,weatherlink.com 1.10,2013-02-20 08:57:00,
2013-02-20 03:11:00,-3.9,-9.0,30.58,SE,127,2.0,4.0,79,0.00,,,0.00,weatherlink.com 1.10,2013-02-20 09:11:00,
2013-02-20 03:26:00,-4.3,-9.0,30.59,ESE,120,2.0,6.0,81,0.00,,,0.00,weatherlink.com 1.10,2013-02-20 09:26:00,
2013-02-20 03:41:00,-5.9,-11.0,30.59,East,87,0.0,2.0,80,0.00,,,0.00,weatherlink.com 1.10,2013-02-20 09:41:00,
2013-02-20 03:57:00,-6.3,-10.0,30.59,East,89,0.0,0.0,82,0.00,,,0.00,weatherlink.com 1.10,2013-02-20 09:57:00,
2013-02-20 04:12:00,-6.5,-10.0,30.59,ESE,108,0.0,0.0,83,0.00,,,0.00,weatherlink.com 1.10,2013-02-20 10:12:00,
2013-02-20 04:27:00,-6.8,-11.0,30.59,ESE,108,0.0,3.0,83,0.00,,,0.00,weatherlink.com 1.10,2013-02-20 10:27:00,
2013-02-20 04:42:00,-6.8,-10.0,30.59,SE,136,2.0,3.0,84,0.00,,,0.00,weatherlink.com 1.10,2013-02-20 10:42:00,
2013-02-20 04:57:00,-5.6,-9.0,30.59,SSE,165,5.0,5.0,85,0.00,,,0.00,weatherlink.com 1.10,2013-02-20 10:57:00,
2013-02-20 05:12:00,-5.2,-9.0,30.59,SSE,153,3.0,4.0,84,0.00,,,0.00,weatherlink.com 1.10,2013-02-20 11:12:00,
2013-02-20 05:27:00,-5.9,-10.0,30.60,SSE,152,3.0,5.0,83,0.00,,,0.00,weatherlink.com 1.10,2013-02-20 11:27:00,
2013-02-20 05:42:00,-6.2,-10.0,30.60,ESE,117,3.0,4.0,83,0.00,,,0.00,weatherlink.com 1.10,2013-02-20 11:42:00,
2013-02-20 05:57:00,-6.7,-10.0,30.61,SE,127,3.0,4.0,84,0.00,,,0.00,weatherlink.com 1.10,2013-02-20 11:57:00,
2013-02-20 06:12:00,-7.4,-11.0,30.61,East,100,1.0,4.0,84,0.00,,,0.00,weatherlink.com 1.10,2013-02-20 12:12:00,
2013-02-20 06:27:00,-7.8,-11.0,30.61,ESE,103,0.0,0.0,84,0.00,,,0.00,weatherlink.com 1.10,2013-02-20 12:27:00,
2013-02-20 06:42:00,-8.0,-11.0,30.62,ESE,103,0.0,0.0,85,0.00,,,0.00,weatherlink.com 1.10,2013-02-20 12:42:00,
2013-02-20 06:57:00,-6.9,-10.0,30.62,SSE,153,4.0,5.0,86,0.00,,,0.00,weatherlink.com 1.10,2013-02-20 12:57:00,
2013-02-20 07:13:00,-6.3,-10.0,30.62,SE,139,2.0,6.0,85,0.00,,,0.00,weatherlink.com 1.10,2013-02-20 13:13:00,
2013-02-20 07:28:00,-8.1,-12.0,30.63,East,101,0.0,0.0,83,0.00,,,0.00,weatherlink.com 1.10,2013-02-20 13:28:00,
2013-02-20 07:43:00,-6.9,-10.0,30.63,East,100,0.0,0.0,85,0.00,,,0.00,weatherlink.com 1.10,2013-02-20 13:43:00,
2013-02-20 07:58:00,-4.5,-8.0,30.64,East,100,0.0,0.0,85,0.00,,,0.00,weatherlink.com 1.10,2013-02-20 13:58:00,
2013-02-20 08:13:00,-4.7,-9.0,30.63,SSW,199,5.0,6.0,83,0.00,,,0.00,weatherlink.com 1.10,2013-02-20 14:13:00,
2013-02-20 08:28:00,-4.2,-8.0,30.63,SSW,195,3.0,5.0,83,0.00,,,0.00,weatherlink.com 1.10,2013-02-20 14:28:00,
2013-02-20 08:43:00,-3.7,-8.0,30.63,South,176,3.0,5.0,82,0.00,,,0.00,weatherlink.com 1.10,2013-02-20 14:43:00,
2013-02-20 08:58:00,-3.2,-8.0,30.62,SW,217,4.0,6.0,81,0.00,,,0.00,weatherlink.com 1.10,2013-02-20 14:58:00,
2013-02-20 09:13:00,-2.9,-8.0,30.62,South,176,5.0,10.0,80,0.00,,,0.00,weatherlink.com 1.10,2013-02-20 15:13:00,
2013-02-20 09:28:00,-2.8,-8.0,30.62,SW,219,6.0,9.0,79,0.00,,,0.00,weatherlink.com 1.10,2013-02-20 15:28:00,
2013-02-20 09:43:00,-2.1,-7.0,30.62,SSW,197,4.0,7.0,79,0.00,,,0.00,weatherlink.com 1.10,2013-02-20 15:43:00,
2013-02-20 09:58:00,-0.8,-6.0,30.62,SSW,209,5.0,7.0,78,0.00,,,0.00,weatherlink.com 1.10,2013-02-20 15:58:00,
2013-02-20 10:13:00,0.2,-6.0,30.63,SW,224,3.0,6.0,76,0.00,,,0.00,weatherlink.com 1.10,2013-02-20 16:13:00,
2013-02-20 10:28:00,0.9,-5.0,30.63,WSW,253,3.0,7.0,75,0.00,,,0.00,weatherlink.com 1.10,2013-02-20 16:28:00,
2013-02-20 10:44:00,2.0,-4.0,30.62,WSW,258,2.0,5.0,75,0.00,,,0.00,weatherlink.com 1.10,2013-02-20 16:44:00,
2013-02-20 10:59:00,2.7,-4.0,30.63,South,172,0.0,5.0,73,0.00,,,0.00,weatherlink.com 1.10,2013-02-20 16:59:00,
2013-02-20 11:14:00,3.7,-3.0,30.62,SSE,162,3.0,6.0,72,0.00,,,0.00,weatherlink.com 1.10,2013-02-20 17:14:00,
2013-02-20 11:29:00,5.8,-2.0,30.63,NE,34,3.0,3.0,71,0.00,,,0.00,weatherlink.com 1.10,2013-02-20 17:29:00,
2013-02-20 11:44:00,6.2,-3.0,30.63,NE,37,4.0,4.0,66,0.00,,,0.00,weatherlink.com 1.10,2013-02-20 17:44:00,
2013-02-20 11:59:00,5.6,-3.0,30.64,ENE,57,2.0,6.0,67,0.00,,,0.00,weatherlink.com 1.10,2013-02-20 17:59:00,
2013-02-20 12:14:00,6.0,-3.0,30.63,NNE,32,1.0,5.0,67,0.00,,,0.00,weatherlink.com 1.10,2013-02-20 18:14:00,
2013-02-20 12:29:00,6.6,-3.0,30.62,ENE,77,0.0,4.0,66,0.00,,,0.00,weatherlink.com 1.10,2013-02-20 18:29:00,
2013-02-20 12:44:00,7.8,-1.0,30.62,NNE,25,2.0,5.0,67,0.00,,,0.00,weatherlink.com 1.10,2013-02-20 18:44:00,
2013-02-20 12:59:00,8.2,-1.0,30.62,NNE,16,5.0,5.0,66,0.00,,,0.00,weatherlink.com 1.10,2013-02-20 18:59:00,
2013-02-20 13:14:00,9.3,0.0,30.62,NNE,21,3.0,5.0,65,0.00,,,0.00,weatherlink.com 1.10,2013-02-20 19:14:00,
2013-02-20 13:29:00,9.3,-1.0,30.62,NE,51,3.0,5.0,64,0.00,,,0.00,weatherlink.com 1.10,2013-02-20 19:29:00,
2013-02-20 13:44:00,10.4,1.0,30.62,NE,42,1.0,5.0,65,0.00,,,0.00,weatherlink.com 1.10,2013-02-20 19:44:00,
2013-02-20 14:00:00,12.2,2.0,30.62,ENE,72,1.0,3.0,65,0.00,,,0.00,weatherlink.com 1.10,2013-02-20 20:00:00,
2013-02-20 14:15:00,11.4,1.0,30.63,NE,56,2.0,4.0,63,0.00,,,0.00,weatherlink.com 1.10,2013-02-20 20:15:00,
2013-02-20 14:30:00,11.7,1.0,30.62,East,79,2.0,4.0,62,0.00,,,0.00,weatherlink.com 1.10,2013-02-20 20:30:00,
2013-02-20 14:45:00,13.6,3.0,30.62,SE,128,1.0,2.0,63,0.00,,,0.00,weatherlink.com 1.10,2013-02-20 20:45:00,
2013-02-20 15:00:00,13.1,2.0,30.61,South,173,2.0,3.0,60,0.00,,,0.00,weatherlink.com 1.10,2013-02-20 21:00:00,
2013-02-20 15:15:00,13.1,2.0,30.61,SSW,203,4.0,4.0,61,0.00,,,0.00,weatherlink.com 1.10,2013-02-20 21:15:00,
2013-02-20 15:30:00,12.9,1.0,30.60,SSE,162,3.0,5.0,59,0.00,,,0.00,weatherlink.com 1.10,2013-02-20 21:30:00,
2013-02-20 15:45:00,12.6,1.0,30.60,South,179,2.0,5.0,61,0.00,,,0.00,weatherlink.com 1.10,2013-02-20 21:45:00,
2013-02-20 16:00:00,12.8,2.0,30.59,SSW,193,3.0,4.0,63,0.00,,,0.00,weatherlink.com 1.10,2013-02-20 22:00:00,
2013-02-20 16:15:00,13.0,3.0,30.59,SE,141,0.0,3.0,63,0.00,,,0.00,weatherlink.com 1.10,2013-02-20 22:15:00,
2013-02-20 16:30:00,13.3,3.0,30.59,South,169,1.0,2.0,63,0.00,,,0.00,weatherlink.com 1.10,2013-02-20 22:30:00,
2013-02-20 16:45:00,13.5,3.0,30.58,SSW,208,2.0,3.0,63,0.00,,,0.00,weatherlink.com 1.10,2013-02-20 22:45:00,
2013-02-20 17:00:00,14.0,3.0,30.59,WSW,253,3.0,6.0,62,0.00,,,0.00,weatherlink.com 1.10,2013-02-20 23:00:00,
2013-02-20 17:16:00,13.6,2.0,30.58,SW,225,4.0,6.0,61,0.00,,,0.00,weatherlink.com 1.10,2013-02-20 23:16:00,
2013-02-20 17:31:00,13.3,3.0,30.58,SW,226,4.0,6.0,63,0.00,,,0.00,weatherlink.com 1.10,2013-02-20 23:31:00,
2013-02-20 17:46:00,13.0,3.0,30.58,SW,218,3.0,8.0,63,0.00,,,0.00,weatherlink.com 1.10,2013-02-20 23:46:00,
2013-02-20 18:01:00,12.7,3.0,30.57,SW,219,5.0,6.0,64,0.00,,,0.00,weatherlink.com 1.10,2013-02-21 00:01:00,
2013-02-20 18:16:00,12.4,2.0,30.57,SW,224,6.0,8.0,64,0.00,,,0.00,weatherlink.com 1.10,2013-02-21 00:16:00,
2013-02-20 18:31:00,12.3,2.0,30.57,SW,225,4.0,9.0,64,0.00,,,0.00,weatherlink.com 1.10,2013-02-21 00:31:00,
2013-02-20 18:46:00,12.1,2.0,30.57,WSW,239,3.0,7.0,64,0.00,,,0.00,weatherlink.com 1.10,2013-02-21 00:46:00,
2013-02-20 19:01:00,11.8,2.0,30.57,WSW,240,2.0,6.0,65,0.00,,,0.00,weatherlink.com 1.10,2013-02-21 01:01:00,
2013-02-20 19:16:00,11.5,2.0,30.57,West,264,1.0,3.0,66,0.00,,,0.00,weatherlink.com 1.10,2013-02-21 01:16:00,
2013-02-20 19:32:00,11.4,2.0,30.57,WSW,247,2.0,5.0,66,0.00,,,0.00,weatherlink.com 1.10,2013-02-21 01:32:00,
2013-02-20 19:46:00,10.9,2.0,30.56,NW,315,1.0,2.0,67,0.00,,,0.00,weatherlink.com 1.10,2013-02-21 01:46:00,
2013-02-20 20:01:00,10.8,2.0,30.56,West,267,2.0,3.0,67,0.00,,,0.00,weatherlink.com 1.10,2013-02-21 02:01:00,
2013-02-20 20:16:00,10.4,2.0,30.55,NW,305,1.0,2.0,68,0.00,,,0.00,weatherlink.com 1.10,2013-02-21 02:16:00,
2013-02-20 20:31:00,9.4,1.0,30.56,ENE,68,2.0,2.0,68,0.00,,,0.00,weatherlink.com 1.10,2013-02-21 02:31:00,
2013-02-20 20:47:00,9.1,2.0,30.55,ENE,63,0.0,2.0,71,0.00,,,0.00,weatherlink.com 1.10,2013-02-21 02:47:00,
2013-02-20 21:02:00,9.2,1.0,30.56,ENE,63,0.0,0.0,70,0.00,,,0.00,weatherlink.com 1.10,2013-02-21 03:02:00,
2013-02-20 21:17:00,9.1,1.0,30.56,ENE,63,0.0,0.0,70,0.00,,,0.00,weatherlink.com 1.10,2013-02-21 03:17:00,
2013-02-20 21:32:00,8.0,1.0,30.56,ENE,63,0.0,0.0,72,0.00,,,0.00,weatherlink.com 1.10,2013-02-21 03:32:00,
2013-02-20 21:47:00,8.0,1.0,30.56,ENE,64,0.0,0.0,74,0.00,,,0.00,weatherlink.com 1.10,2013-02-21 03:47:00,
2013-02-20 22:02:00,8.7,2.0,30.56,ENE,64,0.0,0.0,75,0.00,,,0.00,weatherlink.com 1.10,2013-02-21 04:02:00,
2013-02-20 22:17:00,8.2,2.0,30.55,SE,136,2.0,2.0,75,0.00,,,0.00,weatherlink.com 1.10,2013-02-21 04:17:00,
2013-02-20 22:32:00,7.3,1.0,30.55,SSW,208,2.0,5.0,76,0.00,,,0.00,weatherlink.com 1.10,2013-02-21 04:32:00,
2013-02-20 22:48:00,6.6,1.0,30.56,SSW,200,1.0,2.0,77,0.00,,,0.00,weatherlink.com 1.10,2013-02-21 04:48:00,
2013-02-20 23:02:00,6.3,1.0,30.56,East,93,0.0,0.0,78,0.00,,,0.00,weatherlink.com 1.10,2013-02-21 05:02:00,
2013-02-20 23:17:00,5.2,0.0,30.56,East,80,0.0,2.0,79,0.00,,,0.00,weatherlink.com 1.10,2013-02-21 05:17:00,
2013-02-20 23:32:00,3.8,-1.0,30.56,NE,54,0.0,2.0,79,0.00,,,0.00,weatherlink.com 1.10,2013-02-21 05:32:00,
2013-02-20 23:47:00,4.2,0.0,30.57,NE,54,0.0,0.0,81,0.00,,,0.00,weatherlink.com 1.10,2013-02-21 05:47:00,